Starlink 32466

operational
NORAD ID: 61859 Int'l Des: 2024-202 Owner: SPXS Country: US Constellation: starlink
LEOCIRCULAR

About Starlink 32466

Description loading...

Live Position

Loading 3D Globe...

Upcoming Passes

Altitude History

Altitude vs Time

uPlot chart will show altitude changes over time

Two-Line Element Set

1 61859U 24202Q 25258.10195312 .00000258 00000-0 18890-4 0 9998
2 61859 43.0009 149.6263 0001783 275.4196 84.6452 15.27577632 48489
Epoch: Sep 15, 2025 • Age: 30 hours

Current Status

Altitude 486.1 km
Velocity 7.63 km/s
Sub-Earth Point 37.25°N, 141.1°E
Launch Date Nov 7, 2024
Age 0.8 years
Type internet

Technical Details

Classification Payload
Mass 730.00 kg
Dry Mass 700.00 kg
Total Mass 730.00 kg
Length 0.30 m
Diameter 4.10 m
Span 29.00 m
Shape Box + pan
Manufacturer SPXS
Bus Type Starlink V2M
Phase Status In Orbit
Owner/State SPXS/US

Large Constellations

Loading constellations...